Regional Weather Roundup
Issued by NWS

Home | Current Version | Previous Version | Text Only | Print | Product List | Glossary Off
Versions: 1 2 3 4 5 6 7 8 9 10 11 12 13 14 15 16 17 18 19 20 21 22 23 24 25 26 27 28 29 30 31 32 33 34 35 36 37 38 39 40 41 42 43 44 45 46 47 48 49 50

000
ASUS43 KDMX 260807
RWRIA

WEATHER ROUNDUP FOR IOWA
NATIONAL WEATHER SERVICE DES MOINES IA
300 AM CDT SUN APR 26 2015

NOTE: "FAIR" INDICATES FEW OR NO CLOUDS BELOW 12,000 FEET WITH NO
SIGNIFICANT WEATHER AND/OR OBSTRUCTIONS TO VISIBILITY.

* - THESE STATIONS ARE NOT NWS STATIONS...THUS NOT UNDER NWS
QUALITY CONTROL.  THEY ALSO DO NOT REPORT WEATHER SUCH
AS PRECIPITATION OR FOG.

IAZ001>003-012>014-020>022-031>034-043>046-260900-
   NORTHWEST IOWA

CITY           SKY/WX    TMP DP  RH WIND       PRES   REMARKS
CARROLL *      CLOUDY    41  39  93 N5        29.95R
CHEROKEE *     MOCLDY    41  37  87 NE3       29.97S
DENISON *      CLEAR     41  41 100 CALM      29.93F
LE MARS *      MOCLDY    48  39  71 E5        29.98S
ORANGE CITY *  CLEAR     41  36  81 E3        29.97S
SHELDON *      CLEAR     36  36 100 CALM      29.96S
SIOUX CITY     CLOUDY    49  39  68 E6        29.96S
SPENCER        MOCLDY    35  32  88 NW6       29.97R FOG     WCI  30
STORM LAKE *   CLEAR     41  37  87 NE7       29.97S
$$

IAZ055>058-069>071-079>083-090>094-260900-
   SOUTHWEST IOWA

CITY           SKY/WX    TMP DP  RH WIND       PRES   REMARKS
ATLANTIC *     PTCLDY    43  41  93 NE5       29.93S
AUDUBON *      CLEAR     41  37  87 CALM      29.95S
CLARINDA *     CLOUDY    46  43  87 NE7       29.93R
COUNCIL BLFS * CLOUDY    43  43 100 NE8       29.93R
CRESTON *      CLEAR     41  39  93 NE9       29.92S
HARLAN  *      CLEAR     43  43 100 NE8       29.97S
LAMONI         CLOUDY    46  40  79 E12       29.90R
RED OAK *      CLEAR     43  41  93 NE7       29.92S
SHENANDOAH *   CLOUDY    48  45  87 NE8       29.92S
$$

IAZ047>049-059>061-072>074-084-260900-
   CENTRAL IOWA

CITY           SKY/WX    TMP DP  RH WIND       PRES   REMARKS
AMES           MOCLDY    43  37  79 NE3       29.94S
ANKENY *       CLOUDY    46  39  76 E5        29.93S
CHARITON *     CLEAR     43  39  87 E9        29.92R
DES MOINES     CLOUDY    48  38  68 E8        29.94R
GRINNELL*      CLOUDY    45  39  81 NE9       29.93S
KNOXVILLE *    CLOUDY    45  37  76 E8        29.91S
MARSHALLTOWN   PTCLDY    40  36  86 NE5       29.93S
PELLA *        CLOUDY    46  43  87 E3        29.94R
PERRY *        CLOUDY    45  41  87 NE5       29.94S
$$

IAZ004>006-015-016-023>025-035-036-260900-
   NORTH CENTRAL IOWA

CITY           SKY/WX    TMP DP  RH WIND       PRES   REMARKS
ALGONA *       CLEAR     37  37 100 N6        29.97R FOG     WCI  33
CLARION *      CLEAR     36  36 100 NE7       29.96R WCI  30
ESTHERVILLE    CLEAR     33  31  92 N6        29.97R WCI  28
FORT DODGE *   PTCLDY    39  36  87 NE3       29.96R
MASON CITY     CLEAR     31  29  92 N3        29.97S
FOREST CITY *  CLEAR     32  32 100 N3        29.96R FOG
IOWA FALLS *     N/A     41  36  81 NE3       29.96R
$$

IAZ007>011-017>019-026>030-037>042-050>054-066-260900-
   NORTHEAST IOWA

CITY           SKY/WX    TMP DP  RH WIND       PRES   REMARKS
CEDAR RAPIDS     N/A     41  35  79 NE8       29.93R
CHARLES CITY * CLEAR     37  34  87 NE7       29.96S WCI  32
CLINTON *      CLEAR     36  28  75 N6        29.95S WCI  31
DECORAH *      CLEAR     39  21  48 NE7       29.97R WCI  34
DUBUQUE        CLEAR     36  27  69 NE9       29.94R WCI  29
MONTICELLO *   CLEAR     36  34  93 CALM      29.94S
OELWEIN *      CLEAR     36  30  80 NE8       29.96R WCI  29
WATERLOO       CLEAR     34  30  85 CALM      29.95S
$$

IAZ064-065-067-068-078-260900-
   EAST CENTRAL IOWA

CITY           SKY/WX    TMP DP  RH WIND       PRES   REMARKS
DAVENPORT      CLEAR     37  32  82 NE8       29.92S WCI  31
IOWA CITY      PTCLDY    43  36  76 NE7       29.94S
MT. PLEASANT * MOCLDY    43  39  87 NE7       29.92R
MUSCATINE *    CLEAR     41  37  87 N6        29.93R
QUAD CITIES    CLEAR     42  33  70 CALM      29.92R
$$

IAZ062-063-075>077-085>089-095>099-260900-
   SOUTHEAST IOWA

CITY           SKY/WX    TMP DP  RH WIND       PRES   REMARKS
BURLINGTON     CLOUDY    44  34  67 NE13      29.90R
FAIRFIELD *    PTCLDY    41  37  87 NE8       29.92R
FORT MADISON * CLOUDY    45  37  76 NE7       29.91R
KEOKUK *       CLOUDY    45  39  81 NE8       29.90R
OSKALOOSA *      N/A     39  36  87 NE9       29.92S WCI  33
CENTERVILLE *  CLOUDY    45  41  87 NE7       29.92R
OTTUMWA        MOCLDY    41  37  86 NE8       29.91S
WASHINGTON *   CLEAR     41  41 100 NE7       29.93R
$$

ABBREVIATIONS USED IN REMARKS
   TC - TEMPERATURES IN CELSIUS
  WCI - WIND CHILL INDEX
   HX - HEAT INDEX
  VSB - VISIBILITY
$$




USA.gov is the U.S. government's official web portal to all federal, state and local government web resources and services.